This demonstration page uses our WeatherBlox Daily Observations layout. Learn more.

Left ArrowRight Arrow

Hourly Observations for February 8, 2021

Temp ( °F °C ) Dew Point ( °F °C ) Humidity (%) Winds ( mph kmh ) Pressure ( in mb ) Visibility ( mi km ) Precip ( " mm )
12:15 am 00:15 Cloudy 4 -15.5 N/A 81 81 NNE 8 13 30.36 1028 10 16 N/A
12:35 am 00:35 Cloudy 4 -15.5 -1 -18.2 80 80 NE 3 6 30.37 1029 10 16 N/A
12:55 am 00:55 Cloudy 4 -15.6 -1 -18.5 79 79 E 3 6 30.35 1028 10 16 N/A
1:15 am 01:15 Cloudy 4 -15.6 -1 -18.5 79 79 N N/A 30.36 1028 10 16 N/A
1:35 am 01:35 Cloudy 4 -15.7 -1 -18.5 79 79 N N/A 30.37 1028 10 16 N/A
1:55 am 01:55 Partly Cloudy 3 -16.2 -2 -19.1 79 79 N N/A 30.38 1029 10 16 N/A
2:15 am 02:15 Mostly Cloudy 1 -17 -3 -19.6 80 80 N N/A 30.38 1029 10 16 N/A
2:35 am 02:35 Cloudy with Light Snow 1 -17.1 -3 -19.4 82 82 N N/A 30.39 1029 4 6 N/A
2:55 am 02:55 Cloudy 2 -16.7 -2 -19 83 83 N N/A 30.39 1029 7 11 N/A
3:15 am 03:15 Cloudy 1 -17.4 -3 -19.6 83 83 N N/A 30.39 1029 10 16 N/A
3:35 am 03:35 Cloudy 1 -17.1 -3 -19.2 84 84 N N/A 30.39 1029 7 11 N/A
3:55 am 03:55 Cloudy 1 -17.5 -3 -19.7 83 83 N N/A 30.40 1029 7 11 N/A
4:15 am 04:15 Cloudy N/A -4 -19.9 84 84 N 5 7 30.39 1029 10 16 N/A
4:35 am 04:35 Mostly Cloudy -4 -19.9 -8 -22.1 83 83 NNE 5 7 30.40 1030 10 16 N/A
4:55 am 04:55 Partly Cloudy -5 -20.6 -9 -22.5 85 85 NNE 7 11 30.41 1030 10 16 N/A
5:15 am 05:15 Clear -7 -21.4 -10 -23.5 83 83 NNE 5 7 30.41 1030 10 16 N/A
5:35 am 05:35 Clear -7 -21.8 -11 -23.8 84 84 NNE 7 11 30.41 1030 10 16 N/A
5:55 am 05:55 Clear -9 -22.7 -13 -25 82 82 N 7 11 30.42 1030 10 16 N/A
6:15 am 06:15 Partly Cloudy -7 -21.9 -11 -24 83 83 N 6 9 30.42 1030 10 16 N/A
6:35 am 06:35 Cloudy -5 -20.4 -8 -22.4 84 84 NNE 5 7 30.40 1029 10 16 N/A
6:55 am 06:55 Cloudy -4 -19.9 -8 -22 83 83 NNE 5 7 30.40 1030 10 16 N/A
7:15 am 07:15 Cloudy -3 -19.6 -7 -21.6 84 84 NE 3 6 30.41 1030 10 16 N/A
7:35 am 07:35 Cloudy -3 -19.5 -7 -21.5 84 84 NNE 6 9 30.41 1030 10 16 N/A
7:55 am 07:55 Cloudy -3 -19.5 -7 -21.5 84 84 NNE 5 7 30.41 1030 10 16 N/A
8:15 am 08:15 Cloudy -2 -19 -6 -21.1 84 84 NNE 5 7 30.42 1030 10 16 N/A
8:35 am 08:35 Cloudy -3 -19.4 -7 -21.5 84 84 N 5 7 30.43 1030 10 16 N/A
8:55 am 08:55 Cloudy -3 -19.7 -8 -22 82 82 N 5 7 30.43 1030 10 16 N/A
9:15 am 09:15 Partly Cloudy -4 -20 -8 -22.3 82 82 N 5 7 30.43 1031 10 16 N/A
9:35 am 09:35 Sunny -3 -19.6 -7 -21.8 83 83 N 5 7 30.44 1031 10 16 N/A
9:55 am 09:55 Sunny -3 -19.7 -8 -22 82 82 NNE 5 7 30.43 1030 10 16 N/A
10:15 am 10:15 Sunny -3 -19.6 -8 -22 81 81 N 5 7 30.44 1031 10 16 N/A
10:35 am 10:35 Sunny -3 -19.3 -7 -21.6 82 82 N 3 6 30.45 1031 10 16 N/A
10:55 am 10:55 Partly Cloudy -2 -18.8 -6 -21.1 82 82 N 3 6 30.45 1031 10 16 N/A
11:15 am 11:15 Cloudy -1 -18.1 -4 -20.1 84 84 NE 3 6 30.44 1031 10 16 N/A
11:35 am 11:35 Cloudy 1 -17.5 -3 -19.7 83 83 NE 5 7 30.44 1031 10 16 N/A
11:55 am 11:55 Cloudy 1 -17.1 -3 -19.2 84 84 E 8 13 30.42 1030 7 11 N/A
12:15 pm 12:15 Cloudy 1 -17.1 -3 -19.3 83 83 ENE 8 13 30.41 1030 10 16 N/A
12:35 pm 12:35 Cloudy 2 -16.8 -2 -19 83 83 ENE 8 13 30.41 1030 10 16 N/A
12:55 pm 12:55 Cloudy 2 -16.9 -3 -19.2 82 82 NE 9 15 30.40 1029 7 11 N/A
1:15 pm 13:15 Cloudy 2 -16.7 -2 -19 83 83 NE 9 15 30.40 1029 10 16 N/A
1:35 pm 13:35 Cloudy 3 -16.2 -2 -18.7 81 81 NE 8 13 30.39 1029 10 16 N/A
1:55 pm 13:55 Cloudy 3 -16.1 -2 -18.9 79 79 NE 9 15 30.39 1029 10 16 N/A
2:15 pm 14:15 Cloudy with Light Snow 3 -16 -3 -19.2 77 77 NNE 9 15 30.39 1029 7 11 N/A
2:35 pm 14:35 Cloudy 3 -15.9 -3 -19.6 73 73 NE 9 15 30.39 1029 10 16 N/A
2:55 pm 14:55 Cloudy 4 -15.7 -3 -19.3 74 74 NE 10 17 30.38 1029 10 16 N/A
3:15 pm 15:15 Cloudy with Light Snow 4 -15.5 -2 -19 75 75 NE 9 15 30.37 1029 10 16 N/A
3:35 pm 15:35 Cloudy 4 -15.6 -2 -19 75 75 NNE 9 15 30.38 1029 10 16 N/A
3:55 pm 15:55 Cloudy 4 -15.6 -2 -18.9 76 76 NE 10 17 30.37 1029 10 16 N/A
4:15 pm 16:15 Cloudy 4 -15.8 -2 -19 77 77 NE 10 17 30.38 1029 10 16 N/A
4:35 pm 16:35 Cloudy with Light Snow 3 -16.2 -3 -19.6 75 75 ENE 10 17 30.39 1029 10 16 N/A
4:55 pm 16:55 Cloudy 3 -16.3 -3 -19.5 77 77 ENE 10 17 30.39 1029 10 16 N/A
5:15 pm 17:15 Cloudy 3 -16.2 -3 -19.3 77 77 ENE 9 15 30.39 1029 10 16 N/A
5:35 pm 17:35 Cloudy 2 -16.5 -3 -19.5 78 78 E 8 13 30.39 1029 10 16 N/A
5:55 pm 17:55 Cloudy 2 -16.7 -4 -19.8 77 77 E 7 11 30.40 1029 10 16 N/A
6:15 pm 18:15 Cloudy 1 -17 -4 -20 78 78 ENE 7 11 30.42 1030 10 16 N/A
6:35 pm 18:35 Cloudy 1 -17.3 -4 -20 80 80 ENE 5 7 30.43 1031 10 16 N/A
6:55 pm 18:55 Cloudy N/A -5 -20.3 80 80 ENE 6 9 30.44 1031 10 16 N/A
7:15 pm 19:15 Cloudy -1 -18.2 -5 -20.8 80 80 ENE 6 9 30.46 1032 10 16 N/A
7:35 pm 19:35 Mostly Cloudy -2 -19 -7 -21.5 81 81 E 6 9 30.47 1032 10 16 N/A
7:55 pm 19:55 Clear -3 -19.7 -8 -22.1 81 81 ENE 5 7 30.49 1033 10 16 N/A
8:15 pm 20:15 Clear -6 -21.1 -10 -23.5 81 81 N N/A 30.52 1033 10 16 N/A
8:35 pm 20:35 Clear -4 -20.1 -8 -22.3 83 83 N N/A 30.50 1033 10 16 N/A
8:55 pm 20:55 Clear -6 -21.2 -10 -23.5 82 82 N N/A 30.52 1033 10 16 N/A
9:15 pm 21:15 Clear -7 -21.6 -11 -23.9 82 82 N N/A 30.53 1034 10 16 N/A
9:35 pm 21:35 Clear -7 -21.5 -10 -23.6 83 83 N N/A 30.54 1034 10 16 N/A
9:55 pm 21:55 Clear -7 -21.5 -10 -23.6 83 83 N N/A 30.54 1034 10 16 N/A
10:15 pm 22:15 Clear -9 -22.5 -13 -24.9 81 81 N N/A 30.53 1034 10 16 N/A
10:35 pm 22:35 Clear -9 -22.8 -13 -25.2 81 81 N N/A 30.56 1035 10 16 N/A
10:55 pm 22:55 Clear -9 -22.8 -13 -25.2 81 81 N N/A 30.57 1035 10 16 N/A
11:15 pm 23:15 Clear -13 -24.8 -18 -27.5 78 78 N N/A 30.59 1036 10 16 N/A
11:35 pm 23:35 Clear -11 -24.1 -16 -26.6 80 80 N N/A 30.58 1036 10 16 N/A
11:55 pm 23:55 Partly Cloudy -13 -25 -18 -27.7 78 78 N N/A 30.60 1036 10 16 N/A

Powered by AerisWeather